Weather History for Heber, UT

Change the Weather History Date:

Wednesday, July 17, 2013

  Actual Average (KPVU) Record (KPVU)
Temperature  
Mean Temperature 74 °F -  
Max Temperature 91 °F 89 °F 100 °F (2006)
Min Temperature 57 °F 58 °F 51 °F (1983)
Cooling Degree Days 9    
Growing Degree Days 24 (Base 50)    
Moisture  
Dew Point 55 °F    
Average Humidity 63    
Maximum Humidity 94    
Minimum Humidity 22    
Precipitation  
Precipitation 0.00 in - - ()
Sea Level Pressure  
Sea Level Pressure 30.24 in    
Wind  
Wind Speed 3 mph (NW)    
Max Wind Speed 17 mph    
Max Gust Speed 32 mph    
Visibility 10 miles    
Events Rain , Thunderstorm    
Averages and records for this station are not official NWS values.
T = Trace of Precipitation, MM = Missing Value Source: NWS Daily Summary

Daily Weather History Graph

Daily Weather History Graph

Search for Another Location

Airport:

Trip Planner

Search our weather history database for the weather conditions in past years. The results will help you decide how hot, cold, wet, or windy it might be!

Date:

Astronomy

Jul. 17, 2013 Rise Set
Actual Time 6:09 AM MDT 8:53 PM MDT
Civil Twilight 5:37 AM MDT 9:25 PM MDT
Nautical Twilight 4:57 AM MDT 10:05 PM MDT
Astronomical Twilight 4:12 AM MDT 10:50 PM MDT
Moon 3:46 PM MDT (7/17) 1:19 AM MDT (7/17)
Length of Visible Light 15h 47m
Length of Day
14h 43m
Waxing Gibbous, 68% of the Moon is Illuminated
Jul 17
Waxing Gibbous
Jul 22
Full
Jul 29
Last Quarter
Aug 6
New
Aug 14
First Quarter

Hourly Weather History & Observations

Time (MDT) Temp. Heat Index Dew Point Humidity Pressure Visibility Wind Dir Wind Speed Gust Speed Precip Events Conditions
12:15 AM 68.0 °F - 55.4 °F 64% 30.21 in 10.0 mi Calm Calm - N/A   Clear
12:35 AM 64.4 °F - 55.4 °F 73% 30.21 in 10.0 mi SSE 5.8 mph - N/A   Clear
12:55 AM 68.0 °F - 53.6 °F 60% 30.21 in 10.0 mi ENE 3.5 mph - N/A   Clear
1:15 AM 66.2 °F - 55.4 °F 68% 30.20 in 10.0 mi Calm Calm - N/A   Clear
1:35 AM 64.4 °F - 55.4 °F 73% 30.20 in 10.0 mi Calm Calm - N/A   Clear
1:55 AM 66.2 °F - 55.4 °F 68% 30.20 in 10.0 mi Calm Calm - N/A   Scattered Clouds
2:15 AM 64.4 °F - 55.4 °F 73% 30.20 in 10.0 mi Calm Calm - N/A   Mostly Cloudy
2:35 AM 64.4 °F - 55.4 °F 73% 30.20 in 10.0 mi Calm Calm - N/A   Scattered Clouds
2:55 AM 64.4 °F - 57.2 °F 77% 30.21 in 10.0 mi WNW 4.6 mph - N/A   Clear
3:15 AM 62.6 °F - 57.2 °F 82% 30.21 in 10.0 mi Calm Calm - N/A   Scattered Clouds
3:35 AM 62.6 °F - 57.2 °F 82% 30.22 in 10.0 mi SE 3.5 mph - N/A   Mostly Cloudy
3:55 AM 62.6 °F - 57.2 °F 82% 30.22 in 10.0 mi ESE 4.6 mph - N/A   Mostly Cloudy
4:15 AM 62.6 °F - 57.2 °F 82% 30.23 in 10.0 mi Calm Calm - N/A   Scattered Clouds
4:35 AM 64.4 °F - 55.4 °F 73% 30.23 in 10.0 mi Calm Calm - N/A   Clear
4:55 AM 64.4 °F - 55.4 °F 73% 30.24 in 10.0 mi Calm Calm - N/A   Clear
5:15 AM 60.8 °F - 55.4 °F 82% 30.24 in 10.0 mi Calm Calm - N/A   Clear
5:35 AM 59.0 °F - 55.4 °F 88% 30.24 in 10.0 mi Calm Calm - N/A   Clear
5:55 AM 59.0 °F - 55.4 °F 88% 30.24 in 10.0 mi Calm Calm - N/A   Clear
6:15 AM 57.2 °F - 53.6 °F 88% 30.25 in 10.0 mi Calm Calm - N/A   Clear
6:35 AM 57.2 °F - 53.6 °F 88% 30.25 in 10.0 mi Calm Calm - N/A   Clear
6:55 AM 59.0 °F - 55.4 °F 88% 30.25 in 10.0 mi Calm Calm - N/A   Clear
7:15 AM 62.6 °F - 55.4 °F 77% 30.25 in 10.0 mi Calm Calm - N/A   Clear
7:35 AM 64.4 °F - 55.4 °F 73% 30.25 in 10.0 mi Calm Calm - N/A   Clear
7:55 AM 66.2 °F - 55.4 °F 68% 30.25 in 10.0 mi Calm Calm - N/A   Clear
8:15 AM 68.0 °F - 55.4 °F 64% 30.26 in 10.0 mi Calm Calm - N/A   Clear
8:35 AM 68.0 °F - 55.4 °F 64% 30.26 in 10.0 mi Calm Calm - N/A   Clear
8:55 AM 69.8 °F - 55.4 °F 60% 30.26 in 10.0 mi West 3.5 mph - N/A   Clear
9:15 AM 69.8 °F - 55.4 °F 60% 30.26 in 10.0 mi NNW 3.5 mph - N/A   Clear
9:35 AM 71.6 °F - 55.4 °F 57% 30.26 in 10.0 mi Calm Calm - N/A   Clear
9:55 AM 73.4 °F - 55.4 °F 53% 30.26 in 10.0 mi Calm Calm - N/A   Clear
10:15 AM 75.2 °F - 55.4 °F 50% 30.25 in 10.0 mi NNW 3.5 mph - N/A   Clear
10:35 AM 77.0 °F - 55.4 °F 47% 30.26 in 10.0 mi NW 3.5 mph - N/A   Clear
10:55 AM 78.8 °F - 55.4 °F 44% 30.25 in 10.0 mi North 5.8 mph - N/A   Clear
11:15 AM 80.6 °F 80.5 °F 55.4 °F 42% 30.25 in 10.0 mi NW 3.5 mph - N/A   Clear
11:35 AM 82.4 °F - 51.8 °F 35% 30.25 in 10.0 mi West 3.5 mph - N/A   Scattered Clouds
11:55 AM 86.0 °F - 50.0 °F 29% 30.25 in 10.0 mi WSW 6.9 mph - N/A   Scattered Clouds
12:15 PM 86.0 °F - 50.0 °F 29% 30.25 in 10.0 mi WSW 11.5 mph - N/A   Clear
12:35 PM 87.8 °F - 50.0 °F 27% 30.24 in 10.0 mi WSW 11.5 mph - N/A   Clear
12:55 PM 87.8 °F - 50.0 °F 27% 30.24 in 10.0 mi West 8.1 mph - N/A   Clear
1:15 PM 87.8 °F - 48.2 °F 25% 30.23 in 10.0 mi WSW 8.1 mph - N/A   Clear
1:35 PM 89.6 °F - 46.4 °F 22% 30.22 in 10.0 mi West 4.6 mph - N/A   Clear
1:55 PM 89.6 °F - 48.2 °F 24% 30.22 in 10.0 mi WNW 5.8 mph - N/A Thunderstorm Clear
2:15 PM 89.6 °F - 50.0 °F 26% 30.21 in 10.0 mi West 6.9 mph - N/A   Clear
2:35 PM 89.6 °F - 50.0 °F 26% 30.20 in 10.0 mi NNW 8.1 mph - N/A   Clear
2:55 PM 89.6 °F - 50.0 °F 26% 30.20 in 10.0 mi NNW 5.8 mph - N/A   Clear
3:15 PM 91.4 °F - 50.0 °F 24% 30.19 in 10.0 mi North 6.9 mph - N/A   Clear
3:35 PM 91.4 °F - 51.8 °F 26% 30.19 in 10.0 mi North 3.5 mph - N/A   Clear
3:55 PM 91.4 °F - 50.0 °F 24% 30.19 in 10.0 mi North 9.2 mph - N/A   Scattered Clouds
4:15 PM 86.0 °F - 51.8 °F 31% 30.19 in 10.0 mi NNW 6.9 mph - N/A   Scattered Clouds
4:35 PM 78.8 °F - 53.6 °F 42% 30.20 in 10.0 mi NW 15.0 mph - N/A   Mostly Cloudy
4:55 PM 77.0 °F - 51.8 °F 41% 30.20 in 10.0 mi NNW 9.2 mph 16.1 mph N/A Thunderstorm Mostly Cloudy
5:15 PM 77.0 °F - 53.6 °F 44% 30.20 in 10.0 mi East 3.5 mph - N/A Thunderstorm Thunderstorm
5:35 PM 77.0 °F - 59.0 °F 54% 30.20 in 10.0 mi ESE 9.2 mph - N/A Thunderstorm Scattered Clouds
5:55 PM 71.6 °F - 53.6 °F 53% 30.21 in 10.0 mi SE 17.3 mph 32.2 mph N/A Thunderstorm Mostly Cloudy
6:15 PM 71.6 °F - 53.6 °F 53% 30.24 in 10.0 mi North 4.6 mph - N/A Rain , Thunderstorm Light Thunderstorms and Rain
6:35 PM 66.2 °F - 59.0 °F 78% 30.26 in 10.0 mi NNW 17.3 mph 20.7 mph N/A Rain , Thunderstorm Rain
6:55 PM 64.4 °F - 59.0 °F 83% 30.29 in 10.0 mi NNW 5.8 mph - N/A Thunderstorm Overcast
7:15 PM 64.4 °F - 59.0 °F 83% 30.30 in 10.0 mi ENE 3.5 mph - N/A Rain , Thunderstorm Rain
7:35 PM 64.4 °F - 59.0 °F 83% 30.31 in 7.0 mi Calm Calm - N/A Rain Light Rain
7:55 PM 64.4 °F - 59.0 °F 83% 30.32 in 2.5 mi SW 4.6 mph - N/A Rain Light Rain
8:15 PM 64.4 °F - 60.8 °F 88% 30.32 in 10.0 mi NW 5.8 mph - N/A   Mostly Cloudy
8:35 PM 64.4 °F - 60.8 °F 88% 30.31 in 10.0 mi Calm Calm - N/A   Scattered Clouds
8:55 PM 64.4 °F - 59.0 °F 83% 30.30 in 10.0 mi Calm Calm - N/A   Mostly Cloudy
9:35 PM 62.6 °F - 59.0 °F 88% 30.30 in 10.0 mi East 5.8 mph - N/A   Clear
9:55 PM 62.6 °F - 59.0 °F 88% 30.29 in 10.0 mi ESE 4.6 mph - N/A   Clear
10:15 PM 62.6 °F - 59.0 °F 88% 30.29 in 10.0 mi SSE 3.5 mph - N/A   Scattered Clouds
10:35 PM 62.6 °F - 59.0 °F 88% 30.29 in 10.0 mi Calm Calm - N/A   Clear
10:55 PM 62.6 °F - 59.0 °F 88% 30.28 in 10.0 mi Calm Calm - N/A   Clear
11:15 PM 62.6 °F - 59.0 °F 88% 30.28 in 10.0 mi Calm Calm - N/A   Clear
11:35 PM 60.8 °F - 59.0 °F 94% 30.27 in 10.0 mi Calm Calm - N/A   Clear
11:55 PM 60.8 °F - 57.2 °F 88% 30.27 in 10.0 mi Calm Calm - N/A   Clear